QPF
0.02 0.04 0.03 0.02 0.01 0.01 0.01 0.02 0.01 0.02 0.03 0.03 0.01 0.00 0.00 0.01 0.00 0.00 0.00 0.00 0.00 0.00 0.00 0.01 0.01 0.00 0.00 0.00 0.01 0.00 0.01 0.01 0.02 0.01 0.02 0.02 0.03 0.04 0.04 0.03 0.03 0.03 0.02
0.02 0.03 0.03 0.03 0.03 0.02 0.01 0.02 0.01 0.01 0.02 0.03 0.02 0.01 0.00 0.00 0.00 0.00 0.00 0.01 0.00 0.00 0.00 0.00 0.00 0.00 0.00 0.00 0.01 0.01 0.00 0.01 0.01 0.01 0.01 0.01 0.02 0.03 0.04 0.05 0.05 0.03 0.03
0.01 0.02 0.04 0.04 0.03 0.01 0.01 0.01 0.01 0.01 0.02 0.03 0.02 0.01 0.01 0.00 0.00 0.00 0.00 0.01 0.00 0.00 0.00 0.00 0.00 0.00 0.00 0.00 0.01 0.00 0.01 0.01 0.01 0.01 0.00 0.01 0.01 0.02 0.04 0.05 0.06 0.05 0.04
0.01 0.02 0.04 0.04 0.02 0.01 0.00 0.00 0.00 0.00 0.01 0.02 0.02 0.01 0.01 0.00 0.00 0.00 0.00 0.00 0.00 0.00 0.00 0.00 0.00 0.01 0.00 0.00 0.00 0.01 0.01 0.01 0.00 0.00 0.00 0.00 0.01 0.01 0.01 0.02 0.04 0.06 0.04
0.01 0.02 0.04 0.03 0.01 0.01 0.01 0.00 0.00 0.00 0.00 0.01 0.01 0.01 0.01 0.00 0.00 0.00 0.00 0.01 0.01 0.00 0.00 0.00 0.01 0.01 0.00 0.00 0.00 0.00 0.00 0.00 0.00 0.00 0.00 0.00 0.00 0.01 0.00 0.01 0.02 0.03 0.04
0.02 0.03 0.03 0.02 0.01 0.00 0.01 0.00 0.00 0.00 0.00 0.01 0.02 0.01 0.01 0.00 0.00 0.00 0.01 0.01 0.01 0.01 0.01 0.00 0.00 0.00 0.00 0.01 0.01 0.00 0.00 0.00 0.00 0.01 0.01 0.01 0.00 0.01 0.00 0.01 0.01 0.01 0.03
0.02 0.02 0.02 0.01 0.01 0.00 0.00 0.00 0.00 0.00 0.00 0.01 0.01 0.01 0.01 0.01 0.00 0.00 0.00 0.00 0.00 0.02 0.03 0.01 0.00 0.00 0.00 0.01 0.01 0.01 0.00 0.00 0.00 0.00 0.01 0.01 0.00 0.00 0.01 0.01 0.01 0.01 0.02
0.02 0.02 0.01 0.01 0.01 0.01 0.01 0.01 0.01 0.00 0.00 0.01 0.01 0.01 0.01 0.01 0.00 0.00 0.00 0.00 0.00 0.01 0.01 0.01 0.01 0.01 0.00 0.00 0.01 0.01 0.01 0.00 0.00 0.00 0.01 0.01 0.01 0.00 0.01 0.02 0.02 0.01 0.01
0.01 0.01 0.00 0.01 0.01 0.01 0.01 0.01 0.01 0.01 0.01 0.01 0.01 0.01 0.01 0.01 0.00 0.00 0.00 0.00 0.00 0.00 0.01 0.01 0.00 0.00 0.00 0.00 0.00 0.00 0.00 0.00 0.00 0.00 0.00 0.01 0.00 0.00 0.00 0.01 0.02 0.01 0.01
0.02 0.01 0.01 0.01 0.01 0.01 0.01 0.01 0.01 0.01 0.01 0.01 0.01 0.01 0.01 0.01 0.00 0.00 0.00 0.00 0.00 0.00 0.00 0.00 0.00 0.00 0.00 0.00 0.00 0.00 0.00 0.00 0.00 0.00 0.01 0.01 0.00 0.00 0.00 0.00 0.01 0.01 0.01
0.03 0.03 0.02 0.03 0.02 0.02 0.02 0.01 0.01 0.01 0.01 0.01 0.01 0.00 0.00 0.01 0.01 0.00 0.00 0.00 0.00 0.00 0.00 0.00 0.00 0.00 0.00 0.00 0.00 0.00 0.01 0.00 0.00 0.00 0.01 0.02 0.01 0.00 0.00 0.01 0.01 0.01 0.00
0.02 0.03 0.03 0.02 0.02 0.02 0.02 0.01 0.01 0.01 0.01 0.01 0.00 0.00 0.00 0.00 0.01 0.01 0.00 0.00 0.00 0.00 0.00 0.00 0.00 0.00 0.00 0.00 0.00 0.00 0.01 0.01 0.00 0.00 0.01 0.01 0.00 0.00 0.01 0.01 0.01 0.00 0.00
0.02 0.03 0.03 0.01 0.01 0.02 0.01 0.01 0.01 0.01 0.01 0.01 0.00 0.00 0.00 0.00 0.00 0.00 0.00 0.00 0.00 0.00 0.00 0.00 0.00 0.00 0.00 0.00 0.00 0.00 0.01 0.00 0.00 0.01 0.01 0.00 0.00 0.00 0.00 0.01 0.01 0.00 0.01
0.04 0.03 0.02 0.01 0.02 0.02 0.01 0.01 0.01 0.01 0.01 0.00 0.00 0.00 0.00 0.00 0.00 0.00 0.00 0.00 0.00 0.00 0.00 0.00 0.00 0.00 0.00 0.00 0.00 0.00 0.00 0.00 0.00 0.00 0.00 0.00 0.00 0.00 0.00 0.00 0.00 0.00 0.00
0.05 0.03 0.02 0.02 0.02 0.02 0.01 0.01 0.02 0.01 0.00 0.00 0.00 0.00 0.00 0.01 0.01 0.01 0.00 0.00 0.00 0.00 0.00 0.00 0.00 0.00 0.00 0.00 0.00 0.00 0.00 0.00 0.00 0.00 0.00 0.00 0.00 0.00 0.00 0.00 0.00 0.00 0.00
0.04 0.04 0.04 0.03 0.02 0.02 0.01 0.01 0.02 0.01 0.00 0.00 0.00 0.01 0.01 0.02 0.02 0.01 0.01 0.00 0.00 0.00 0.00 0.00 0.00 0.00 0.00 0.00 0.00 0.00 0.00 0.00 0.00 0.00 0.00 0.00 0.00 0.00 0.00 0.00 0.00 0.00 0.00
0.04 0.03 0.03 0.03 0.03 0.03 0.04 0.03 0.04 0.03 0.02 0.01 0.02 0.02 0.02 0.03 0.02 0.01 0.01 0.00 0.00 0.00 0.00 0.00 0.00 0.00 0.00 0.00 0.00 0.00 0.00 0.00 0.00 0.00 0.00 0.00 0.00 0.00 0.00 0.00 0.00 0.00 0.00
0.02 0.01 0.02 0.03 0.04 0.05 0.06 0.05 0.06 0.04 0.03 0.02 0.04 0.03 0.02 0.02 0.02 0.01 0.00 0.00 0.00 0.00 0.00 0.00 0.00 0.00 0.00 0.00 0.00 0.00 0.00 0.00 0.00 0.00 0.00 0.00 0.00 0.00 0.00 0.00 0.00 0.00 0.00
0.01 0.01 0.02 0.02 0.03 0.05 0.08 0.07 0.04 0.02 0.01 0.01 0.02 0.02 0.02 0.02 0.01 0.01 0.00 0.00 0.00 0.00 0.00 0.00 0.00 0.00 0.00 0.00 0.00 0.00 0.00 0.00 0.00 0.00 0.00 0.00 0.00 0.00 0.00 0.00 0.00 0.00 0.00
0.02 0.01 0.02 0.02 0.02 0.02 0.04 0.06 0.03 0.01 0.01 0.01 0.01 0.01 0.01 0.01 0.01 0.01 0.01 0.01 0.01 0.01 0.00 0.00 0.00 0.00 0.00 0.00 0.01 0.01 0.00 0.00 0.00 0.00 0.00 0.00 0.00 0.00 0.00 0.00 0.00 0.00 0.00
0.02 0.02 0.02 0.03 0.02 0.01 0.02 0.04 0.02 0.01 0.01 0.01 0.01 0.00 0.00 0.00 0.01 0.01 0.01 0.01 0.01 0.01 0.01 0.01 0.00 0.00 0.00 0.01 0.01 0.01 0.00 0.00 0.00 0.00 0.00 0.00 0.00 0.00 0.00 0.00 0.00 0.00 0.00
0.03 0.02 0.02 0.03 0.02 0.01 0.01 0.02 0.02 0.01 0.01 0.01 0.01 0.00 0.00 0.01 0.01 0.01 0.01 0.01 0.01 0.01 0.01 0.01 0.00 0.00 0.01 0.01 0.00 0.00 0.00 0.00 0.00 0.00 0.00 0.00 0.00 0.00 0.00 0.00 0.00 0.00 0.00
0.01 0.01 0.02 0.02 0.01 0.01 0.00 0.01 0.01 0.01 0.01 0.01 0.01 0.01 0.01 0.01 0.01 0.00 0.00 0.00 0.00 0.00 0.00 0.00 0.00 0.00 0.00 0.00 0.00 0.00 0.00 0.00 0.00 0.00 0.00 0.00 0.00 0.00 0.00 0.00 0.00 0.00 0.00
0.01 0.01 0.02 0.02 0.02 0.00 0.00 0.00 0.01 0.01 0.00 0.00 0.00 0.00 0.00 0.01 0.01 0.01 0.00 0.00 0.00 0.00 0.00 0.00 0.00 0.00 0.00 0.00 0.00 0.00 0.00 0.00 0.00 0.00 0.00 0.00 0.00 0.00 0.00 0.00 0.00 0.00 0.00
0.01 0.01 0.01 0.01 0.02 0.01 0.00 0.00 0.01 0.00 0.01 0.00 0.00 0.00 0.00 0.00 0.00 0.00 0.00 0.00 0.00 0.00 0.00 0.00 0.00 0.00 0.00 0.00 0.00 0.00 0.00 0.00 0.00 0.00 0.00 0.00 0.00 0.00 0.00 0.00 0.00 0.00 0.00
0.00 0.01 0.01 0.01 0.02 0.01 0.00 0.00 0.01 0.00 0.00 0.00 0.00 0.00 0.00 0.00 0.00 0.00 0.00 0.00 0.00 0.00 0.00 0.00 0.00 0.00 0.00 0.00 0.00 0.00 0.00 0.00 0.00 0.00 0.00 0.00 0.00 0.00 0.00 0.00 0.00 0.00 0.00
MSLP
1015.44 1015.57 1015.73 1015.86 1015.97 1016.05 1016.11 1016.19 1016.31 1016.49 1016.73 1017.02 1017.33 1017.61 1017.84 1017.97 1017.99 1017.90 1017.73 1017.50 1017.24 1017.00 1016.81 1016.66 1016.57 1016.52 1016.49 1016.48 1016.47 1016.47 1016.48 1016.51 1016.57 1016.67 1016.81 1016.97 1017.14 1017.29 1017.42 1017.50 1017.53 1017.53 1017.51
1015.41 1015.56 1015.73 1015.87 1015.98 1016.04 1016.10 1016.18 1016.31 1016.53 1016.81 1017.16 1017.52 1017.85 1018.10 1018.24 1018.25 1018.14 1017.94 1017.69 1017.43 1017.20 1017.03 1016.92 1016.86 1016.84 1016.84 1016.83 1016.82 1016.79 1016.78 1016.78 1016.83 1016.94 1017.10 1017.30 1017.52 1017.74 1017.93 1018.07 1018.16 1018.20 1018.19
1015.20 1015.41 1015.61 1015.79 1015.91 1015.99 1016.07 1016.17 1016.33 1016.58 1016.91 1017.30 1017.69 1018.05 1018.31 1018.45 1018.46 1018.34 1018.13 1017.88 1017.63 1017.43 1017.29 1017.21 1017.19 1017.20 1017.21 1017.21 1017.18 1017.13 1017.09 1017.07 1017.11 1017.22 1017.40 1017.64 1017.92 1018.20 1018.47 1018.69 1018.84 1018.93 1018.96
1014.85 1015.12 1015.39 1015.62 1015.80 1015.93 1016.04 1016.17 1016.37 1016.64 1017.00 1017.41 1017.82 1018.19 1018.46 1018.60 1018.60 1018.49 1018.29 1018.06 1017.84 1017.67 1017.57 1017.54 1017.56 1017.59 1017.61 1017.60 1017.56 1017.49 1017.42 1017.39 1017.41 1017.52 1017.72 1017.99 1018.33 1018.68 1019.02 1019.31 1019.54 1019.68 1019.75
1014.38 1014.74 1015.10 1015.42 1015.67 1015.86 1016.01 1016.18 1016.40 1016.69 1017.06 1017.47 1017.87 1018.24 1018.50 1018.65 1018.66 1018.57 1018.40 1018.21 1018.04 1017.92 1017.87 1017.88 1017.93 1017.98 1018.01 1018.00 1017.95 1017.86 1017.78 1017.72 1017.74 1017.85 1018.06 1018.36 1018.73 1019.13 1019.53 1019.88 1020.17 1020.37 1020.48
1013.87 1014.33 1014.79 1015.21 1015.54 1015.79 1015.99 1016.19 1016.42 1016.70 1017.05 1017.43 1017.82 1018.16 1018.42 1018.57 1018.61 1018.55 1018.44 1018.31 1018.21 1018.15 1018.15 1018.20 1018.28 1018.35 1018.39 1018.37 1018.31 1018.22 1018.13 1018.07 1018.08 1018.18 1018.39 1018.70 1019.08 1019.51 1019.94 1020.34 1020.68 1020.93 1021.09
1013.37 1013.92 1014.49 1014.99 1015.40 1015.72 1015.96 1016.17 1016.39 1016.65 1016.96 1017.30 1017.65 1017.96 1018.21 1018.37 1018.44 1018.44 1018.40 1018.34 1018.31 1018.32 1018.37 1018.46 1018.57 1018.65 1018.70 1018.70 1018.64 1018.56 1018.47 1018.42 1018.42 1018.52 1018.72 1019.01 1019.38 1019.80 1020.24 1020.65 1021.02 1021.32 1021.53
1012.90 1013.54 1014.19 1014.77 1015.25 1015.61 1015.88 1016.10 1016.30 1016.52 1016.78 1017.07 1017.37 1017.65 1017.89 1018.07 1018.18 1018.23 1018.26 1018.28 1018.32 1018.40 1018.50 1018.63 1018.76 1018.87 1018.94 1018.96 1018.93 1018.87 1018.80 1018.76 1018.78 1018.87 1019.04 1019.30 1019.63 1020.01 1020.42 1020.83 1021.21 1021.54 1021.80
1012.49 1013.19 1013.90 1014.54 1015.06 1015.46 1015.74 1015.96 1016.14 1016.32 1016.53 1016.77 1017.02 1017.27 1017.50 1017.70 1017.85 1017.96 1018.06 1018.15 1018.25 1018.38 1018.54 1018.70 1018.86 1019.00 1019.09 1019.15 1019.17 1019.15 1019.13 1019.13 1019.16 1019.24 1019.38 1019.59 1019.86 1020.18 1020.53 1020.91 1021.28 1021.63 1021.95
1012.13 1012.85 1013.59 1014.26 1014.81 1015.23 1015.54 1015.75 1015.92 1016.08 1016.26 1016.45 1016.68 1016.90 1017.13 1017.33 1017.51 1017.67 1017.81 1017.96 1018.12 1018.29 1018.47 1018.67 1018.86 1019.03 1019.18 1019.29 1019.37 1019.43 1019.48 1019.52 1019.58 1019.66 1019.78 1019.93 1020.13 1020.36 1020.65 1020.97 1021.32 1021.68 1022.04
1011.81 1012.52 1013.26 1013.93 1014.50 1014.94 1015.26 1015.50 1015.68 1015.84 1016.01 1016.19 1016.40 1016.61 1016.83 1017.04 1017.23 1017.41 1017.59 1017.76 1017.95 1018.14 1018.35 1018.57 1018.79 1019.00 1019.21 1019.39 1019.56 1019.71 1019.85 1019.96 1020.07 1020.16 1020.25 1020.36 1020.48 1020.63 1020.83 1021.09 1021.40 1021.76 1022.15
1011.53 1012.20 1012.90 1013.55 1014.12 1014.58 1014.94 1015.21 1015.44 1015.63 1015.83 1016.02 1016.23 1016.45 1016.66 1016.87 1017.06 1017.25 1017.43 1017.61 1017.80 1018.00 1018.21 1018.44 1018.69 1018.95 1019.21 1019.48 1019.75 1020.00 1020.23 1020.43 1020.59 1020.71 1020.80 1020.86 1020.92 1021.00 1021.12 1021.31 1021.58 1021.92 1022.33
1011.30 1011.90 1012.53 1013.14 1013.69 1014.17 1014.57 1014.91 1015.20 1015.47 1015.71 1015.96 1016.19 1016.42 1016.63 1016.84 1017.02 1017.19 1017.36 1017.53 1017.70 1017.89 1018.10 1018.33 1018.60 1018.89 1019.22 1019.56 1019.91 1020.26 1020.59 1020.87 1021.10 1021.26 1021.36 1021.40 1021.42 1021.44 1021.49 1021.62 1021.85 1022.17 1022.58
1011.14 1011.62 1012.15 1012.70 1013.23 1013.72 1014.17 1014.58 1014.96 1015.32 1015.64 1015.95 1016.23 1016.49 1016.71 1016.91 1017.09 1017.24 1017.38 1017.52 1017.67 1017.84 1018.04 1018.27 1018.54 1018.86 1019.22 1019.62 1020.04 1020.47 1020.87 1021.23 1021.52 1021.72 1021.84 1021.89 1021.89 1021.88 1021.89 1021.98 1022.16 1022.45 1022.84
1011.05 1011.39 1011.80 1012.26 1012.74 1013.23 1013.73 1014.21 1014.68 1015.13 1015.56 1015.94 1016.28 1016.58 1016.83 1017.03 1017.20 1017.34 1017.47 1017.59 1017.72 1017.87 1018.04 1018.26 1018.53 1018.85 1019.22 1019.64 1020.10 1020.56 1021.02 1021.43 1021.76 1022.01 1022.16 1022.23 1022.24 1022.22 1022.22 1022.28 1022.44 1022.70 1023.06
1011.05 1011.22 1011.49 1011.84 1012.25 1012.72 1013.23 1013.78 1014.33 1014.87 1015.38 1015.84 1016.25 1016.60 1016.88 1017.11 1017.29 1017.44 1017.57 1017.69 1017.81 1017.95 1018.11 1018.31 1018.56 1018.86 1019.21 1019.62 1020.06 1020.53 1020.99 1021.41 1021.78 1022.06 1022.25 1022.35 1022.39 1022.39 1022.40 1022.46 1022.60 1022.83 1023.16
1011.14 1011.14 1011.24 1011.45 1011.77 1012.19 1012.70 1013.27 1013.87 1014.47 1015.05 1015.59 1016.06 1016.46 1016.79 1017.06 1017.28 1017.46 1017.62 1017.76 1017.91 1018.06 1018.22 1018.40 1018.62 1018.88 1019.19 1019.54 1019.94 1020.36 1020.79 1021.20 1021.56 1021.86 1022.08 1022.22 1022.30 1022.35 1022.39 1022.47 1022.60 1022.81 1023.10
1011.33 1011.15 1011.08 1011.15 1011.36 1011.70 1012.16 1012.71 1013.32 1013.95 1014.57 1015.15 1015.67 1016.12 1016.50 1016.83 1017.10 1017.35 1017.57 1017.77 1017.96 1018.14 1018.33 1018.51 1018.70 1018.92 1019.16 1019.43 1019.74 1020.09 1020.45 1020.81 1021.15 1021.45 1021.69 1021.87 1022.01 1022.11 1022.19 1022.30 1022.44 1022.64 1022.90
1011.63 1011.29 1011.06 1010.99 1011.07 1011.31 1011.69 1012.18 1012.76 1013.37 1013.99 1014.57 1015.11 1015.60 1016.03 1016.41 1016.76 1017.08 1017.38 1017.67 1017.93 1018.17 1018.39 1018.58 1018.76 1018.93 1019.11 1019.30 1019.52 1019.77 1020.04 1020.34 1020.64 1020.93 1021.18 1021.40 1021.59 1021.74 1021.88 1022.01 1022.17 1022.36 1022.59
1012.05 1011.58 1011.23 1011.02 1010.98 1011.10 1011.38 1011.78 1012.28 1012.83 1013.39 1013.95 1014.48 1014.97 1015.43 1015.86 1016.27 1016.67 1017.05 1017.43 1017.77 1018.09 1018.36 1018.58 1018.76 1018.90 1019.02 1019.14 1019.28 1019.44 1019.64 1019.87 1020.13 1020.40 1020.67 1020.92 1021.14 1021.34 1021.52 1021.69 1021.86 1022.04 1022.24
1012.61 1012.07 1011.63 1011.32 1011.17 1011.18 1011.33 1011.62 1012.01 1012.45 1012.92 1013.40 1013.87 1014.33 1014.78 1015.23 1015.68 1016.13 1016.59 1017.04 1017.47 1017.85 1018.18 1018.44 1018.63 1018.77 1018.87 1018.95 1019.03 1019.13 1019.27 1019.46 1019.69 1019.95 1020.22 1020.49 1020.75 1020.98 1021.19 1021.38 1021.55 1021.72 1021.89
1013.33 1012.77 1012.28 1011.92 1011.68 1011.59 1011.63 1011.78 1012.03 1012.34 1012.68 1013.04 1013.42 1013.80 1014.19 1014.61 1015.05 1015.53 1016.02 1016.51 1016.98 1017.42 1017.80 1018.10 1018.33 1018.49 1018.59 1018.66 1018.72 1018.80 1018.93 1019.09 1019.31 1019.57 1019.85 1020.13 1020.41 1020.67 1020.89 1021.09 1021.26 1021.40 1021.54
1014.22 1013.68 1013.20 1012.81 1012.53 1012.35 1012.28 1012.31 1012.41 1012.56 1012.74 1012.95 1013.19 1013.45 1013.74 1014.07 1014.46 1014.89 1015.36 1015.85 1016.33 1016.79 1017.19 1017.53 1017.79 1017.98 1018.11 1018.21 1018.29 1018.39 1018.53 1018.71 1018.94 1019.20 1019.50 1019.80 1020.09 1020.35 1020.58 1020.77 1020.92 1021.05 1021.15
1015.24 1014.78 1014.34 1013.97 1013.66 1013.42 1013.26 1013.16 1013.11 1013.10 1013.11 1013.15 1013.22 1013.32 1013.47 1013.67 1013.94 1014.27 1014.66 1015.09 1015.53 1015.96 1016.36 1016.71 1016.99 1017.22 1017.39 1017.53 1017.67 1017.81 1017.99 1018.20 1018.46 1018.75 1019.06 1019.37 1019.66 1019.92 1020.14 1020.32 1020.46 1020.56 1020.64
1016.35 1015.99 1015.62 1015.28 1014.97 1014.70 1014.46 1014.25 1014.06 1013.89 1013.74 1013.60 1013.49 1013.41 1013.38 1013.43 1013.54 1013.73 1013.99 1014.30 1014.65 1015.01 1015.36 1015.68 1015.96 1016.21 1016.42 1016.61 1016.80 1017.00 1017.22 1017.48 1017.77 1018.08 1018.40 1018.71 1019.00 1019.26 1019.46 1019.63 1019.75 1019.84 1019.91
1017.49 1017.22 1016.93 1016.64 1016.33 1016.03 1015.74 1015.44 1015.14 1014.83 1014.53 1014.23 1013.94 1013.69 1013.49 1013.35 1013.29 1013.31 1013.40 1013.57 1013.78 1014.03 1014.29 1014.55 1014.80 1015.03 1015.26 1015.47 1015.70 1015.93 1016.20 1016.48 1016.79 1017.11 1017.43 1017.74 1018.01 1018.25 1018.44 1018.59 1018.71 1018.80 1018.87
Thickness
5730 5734 5736 5737 5737 5737 5737 5737 5737 5736 5735 5733 5731 5729 5727 5727 5728 5728 5728 5728 5727 5726 5725 5723 5720 5719 5717 5715 5715 5713 5711 5709 5710 5708 5705 5707 5710 5712 5713 5715 5716 5717 5718
5725 5729 5731 5733 5734 5734 5735 5735 5735 5734 5733 5732 5730 5728 5726 5725 5725 5725 5726 5726 5725 5724 5723 5720 5718 5717 5715 5714 5713 5711 5708 5707 5708 5704 5699 5696 5699 5705 5709 5710 5712 5713 5714
5725 5726 5728 5730 5732 5732 5733 5734 5733 5733 5732 5731 5728 5726 5724 5723 5721 5721 5721 5722 5722 5722 5720 5718 5717 5715 5714 5711 5711 5710 5707 5704 5705 5705 5700 5693 5690 5694 5701 5704 5707 5708 5710
5727 5727 5729 5729 5731 5732 5734 5733 5732 5731 5731 5729 5727 5723 5719 5717 5718 5718 5719 5720 5720 5719 5718 5717 5715 5714 5713 5711 5710 5709 5707 5705 5702 5702 5702 5700 5698 5693 5691 5697 5702 5705 5706
5728 5728 5730 5731 5732 5733 5733 5732 5731 5730 5729 5728 5726 5722 5719 5717 5717 5717 5716 5717 5717 5717 5716 5715 5714 5712 5711 5710 5709 5708 5707 5705 5702 5701 5700 5699 5698 5696 5692 5689 5693 5698 5701
5729 5729 5730 5731 5730 5731 5731 5731 5728 5727 5726 5725 5723 5721 5718 5716 5715 5713 5713 5713 5714 5714 5714 5713 5712 5711 5710 5709 5708 5707 5705 5704 5702 5701 5700 5698 5696 5694 5692 5689 5689 5690 5695
5728 5727 5727 5727 5728 5728 5729 5728 5726 5724 5724 5723 5721 5720 5719 5717 5714 5712 5711 5711 5710 5711 5711 5711 5710 5709 5708 5707 5707 5705 5703 5702 5701 5699 5698 5698 5697 5696 5694 5691 5688 5688 5690
5728 5728 5728 5728 5728 5728 5727 5726 5724 5722 5721 5720 5719 5719 5718 5716 5714 5713 5712 5710 5710 5710 5710 5709 5708 5708 5707 5705 5704 5703 5701 5700 5699 5698 5697 5696 5696 5696 5695 5692 5689 5685 5684
5727 5727 5728 5728 5727 5726 5726 5725 5723 5721 5720 5719 5718 5717 5716 5715 5714 5713 5712 5710 5709 5709 5708 5707 5706 5705 5703 5702 5701 5699 5698 5697 5696 5695 5695 5694 5694 5694 5694 5693 5691 5686 5680
5725 5725 5726 5727 5726 5726 5725 5724 5722 5720 5719 5718 5717 5716 5715 5714 5713 5711 5709 5708 5707 5706 5705 5703 5702 5701 5699 5698 5697 5695 5695 5694 5693 5692 5692 5691 5691 5691 5691 5690 5689 5687 5683
5725 5724 5724 5725 5724 5723 5722 5720 5719 5718 5717 5716 5715 5714 5713 5712 5711 5709 5707 5706 5705 5703 5701 5700 5698 5696 5695 5694 5693 5692 5691 5690 5689 5689 5688 5687 5687 5687 5687 5687 5686 5684 5682
5724 5724 5723 5722 5721 5720 5719 5718 5717 5716 5715 5715 5713 5712 5710 5709 5707 5706 5705 5704 5702 5700 5698 5696 5694 5693 5692 5691 5690 5688 5687 5686 5684 5684 5684 5683 5684 5682 5682 5682 5681 5680 5679
5721 5720 5719 5718 5718 5718 5717 5716 5715 5715 5714 5712 5710 5708 5707 5705 5704 5702 5702 5701 5698 5696 5694 5693 5691 5689 5688 5687 5686 5685 5683 5682 5680 5680 5679 5678 5678 5677 5677 5677 5676 5675 5675
5719 5718 5716 5716 5716 5717 5716 5714 5713 5713 5712 5709 5707 5704 5703 5702 5701 5699 5698 5696 5695 5692 5690 5689 5687 5686 5685 5684 5683 5682 5680 5678 5677 5676 5676 5675 5674 5673 5673 5672 5670 5670 5668
5716 5717 5716 5715 5715 5714 5714 5713 5711 5710 5710 5706 5703 5702 5700 5699 5697 5695 5693 5692 5690 5688 5686 5684 5683 5683 5682 5681 5679 5678 5676 5674 5672 5672 5671 5671 5671 5671 5670 5668 5666 5665 5662
5717 5718 5718 5716 5714 5714 5712 5711 5709 5708 5707 5704 5701 5699 5697 5695 5692 5690 5688 5686 5684 5682 5681 5679 5678 5678 5678 5678 5677 5675 5672 5670 5668 5666 5666 5666 5666 5666 5665 5664 5663 5662 5659
5718 5718 5717 5717 5716 5715 5714 5711 5709 5707 5704 5701 5698 5696 5694 5691 5688 5686 5683 5681 5678 5677 5675 5674 5674 5673 5673 5673 5672 5670 5668 5665 5663 5661 5661 5661 5661 5659 5658 5658 5658 5657 5656
5719 5719 5719 5717 5716 5715 5713 5710 5707 5703 5700 5697 5694 5692 5690 5687 5684 5682 5679 5676 5674 5672 5670 5669 5669 5668 5668 5668 5667 5665 5662 5660 5658 5657 5656 5654 5654 5654 5653 5652 5650 5649 5648
5722 5721 5720 5718 5715 5713 5711 5707 5702 5699 5696 5693 5691 5689 5687 5683 5680 5677 5674 5672 5670 5667 5665 5664 5663 5662 5662 5663 5662 5660 5656 5654 5652 5651 5651 5649 5648 5649 5648 5645 5643 5641 5641
5721 5720 5718 5715 5712 5711 5708 5703 5698 5695 5693 5692 5689 5686 5684 5680 5677 5674 5670 5668 5666 5663 5661 5659 5658 5657 5656 5657 5656 5654 5651 5647 5645 5644 5644 5644 5643 5643 5641 5638 5635 5633 5633
5718 5718 5715 5712 5710 5709 5705 5699 5696 5694 5693 5690 5686 5682 5680 5677 5673 5669 5666 5663 5661 5658 5655 5653 5651 5651 5651 5651 5650 5649 5645 5643 5640 5638 5637 5637 5637 5636 5634 5632 5629 5627 5626
5713 5713 5710 5708 5707 5706 5702 5697 5694 5693 5690 5685 5681 5677 5674 5672 5669 5664 5661 5658 5655 5651 5648 5646 5644 5644 5644 5644 5643 5642 5641 5638 5634 5632 5631 5630 5630 5628 5626 5624 5622 5620 5618
5707 5707 5705 5702 5701 5701 5699 5694 5691 5689 5685 5680 5676 5672 5669 5666 5663 5660 5655 5651 5649 5646 5643 5640 5638 5637 5636 5636 5636 5635 5634 5632 5629 5626 5625 5624 5622 5620 5618 5616 5614 5611 5607
5702 5702 5700 5697 5695 5695 5694 5692 5688 5685 5680 5674 5670 5666 5663 5660 5657 5654 5651 5647 5644 5641 5639 5636 5633 5631 5629 5629 5628 5627 5625 5624 5621 5619 5617 5616 5613 5610 5608 5606 5603 5601 5597
5697 5697 5695 5693 5690 5689 5687 5685 5682 5679 5674 5669 5664 5661 5657 5654 5650 5648 5646 5644 5643 5641 5637 5634 5631 5627 5624 5625 5624 5621 5618 5615 5613 5610 5607 5604 5602 5599 5597 5595 5593 5590 5587
5691 5690 5688 5686 5685 5683 5681 5679 5677 5674 5668 5662 5658 5654 5651 5647 5644 5641 5638 5637 5636 5635 5633 5631 5628 5625 5623 5621 5618 5615 5612 5609 5606 5601 5596 5594 5591 5589 5586 5584 5582 5580 5577